Вернуться в каталог

STARLINK-33706

АктивенСвязьVLEO
NORAD 63461·PAYLOAD·🇺🇸 United States

Запущен Apr 6, 2025 с Cape Canaveral Space Force Station

Loading…

Ближайшие Пролёты (ближайшие 24 часа)

TLE

СвежийSource: CelesTrak SupGP

Эпоха: Sep 15, 2026, 02:19 UTC

1 63461C 25070B   26258.09701389 -.00003151  00000+0 -11415-3 0  2588
2 63461  42.9996 270.4645 0001392 265.2425 322.6695 15.27577499    10

Отслеживайте STARLINK-33706 в реальном времени с AllMySat

Download on the App Store